Wind_Speed
9 8 6 5 4 4 3 3 3 2 2 1 1 2 2 2 2 3 4 4 4 5 5 6 6 6 7 7 8 8 9 9 9 8 8 8 8 8 8 7 7 7 6
10 8 6 5 4 4 3 2 2 1 1 1 1 1 1 1 2 2 3 4 4 5 5 6 7 6 6 7 7 8 9 10 10 10 10 9 9 9 9 9 8 8 8
10 9 7 5 5 4 3 2 1 1 1 1 1 1 1 2 2 2 3 3 3 4 5 6 6 7 7 7 7 8 9 9 10 10 11 10 9 10 10 10 10 10 9
10 9 8 7 6 5 3 3 2 2 2 2 2 1 1 1 2 2 2 2 3 3 4 5 6 6 6 7 7 7 8 9 10 11 11 12 11 11 11 11 11 11 11
10 9 9 8 7 6 5 4 3 2 2 2 2 2 2 2 2 2 2 3 3 3 3 4 4 5 5 6 7 7 7 8 9 10 11 12 12 12 12 12 12 12 12
10 10 10 9 8 7 6 5 4 4 3 3 3 4 3 3 3 3 2 3 3 3 3 3 4 4 4 5 6 6 7 7 8 9 10 10 11 12 12 12 13 13 13
11 11 11 10 9 8 7 6 5 4 4 4 4 4 4 4 3 3 3 2 3 3 2 3 3 3 3 4 5 5 5 6 7 7 8 9 9 10 11 12 12 13 13
12 12 12 11 9 9 8 7 6 5 5 4 4 4 3 3 3 3 2 2 2 2 1 2 3 2 3 3 4 4 5 5 6 7 7 8 8 9 10 11 12 13 13
13 13 13 12 10 10 9 8 7 6 5 4 4 3 3 3 3 2 2 2 1 1 0 0 1 2 2 2 3 3 5 5 6 6 7 8 9 10 10 11 12 13 14
14 13 13 12 11 10 10 9 8 7 5 5 4 4 3 3 2 2 2 1 1 1 1 1 1 2 2 2 2 3 4 5 6 7 8 9 9 10 11 12 12 13 14
14 14 13 13 12 11 10 10 9 8 7 6 6 5 5 5 4 3 3 3 3 3 3 3 3 3 4 4 5 5 5 6 7 8 8 9 10 11 11 12 12 13 13
14 14 14 14 13 12 12 11 10 9 9 8 7 7 7 7 6 5 5 5 5 5 4 5 6 6 6 7 7 7 8 8 9 9 10 10 11 11 12 12 13 14 14
15 15 15 15 14 14 13 12 12 11 11 10 10 9 9 9 9 8 8 8 7 8 7 8 8 9 9 9 10 10 10 10 11 12 12 13 13 13 13 14 14 15 15
15 15 15 15 15 15 15 14 13 13 13 13 12 12 12 12 11 11 11 11 11 11 11 11 11 12 12 12 13 13 13 14 14 14 15 15 15 15 16 16 16 17 18
16 16 16 16 17 17 16 16 16 15 15 15 15 15 15 14 14 14 14 14 14 14 15 15 15 15 15 16 16 16 17 17 17 17 18 18 19 19 19 19 20 20 20
16 16 16 17 17 17 17 17 18 18 18 18 18 18 18 18 18 18 18 18 17 17 18 18 18 18 19 19 19 20 20 21 21 21 21 22 22 23 23 24 24 24 24
17 17 17 17 17 18 19 19 19 19 19 19 20 20 21 21 21 22 21 21 21 21 21 22 22 22 22 22 23 23 23 24 25 25 26 26 26 27 27 28 28 28 28
18 18 17 18 19 19 20 20 20 21 21 21 21 22 22 23 23 24 24 25 24 24 25 25 25 25 25 26 26 26 27 28 29 30 30 30 31 32 33 33 32 33 33
19 19 19 19 19 20 21 21 22 22 22 23 23 23 24 24 24 25 26 27 27 27 28 28 28 29 29 29 29 30 31 32 33 33 34 34 35 36 36 37 37 37 37
20 21 20 19 20 20 21 22 23 23 23 23 23 23 24 25 26 26 27 28 28 29 30 30 31 32 32 33 34 35 35 35 36 37 37 37 37 37 38 38 39 40 40
19 20 20 20 20 21 22 23 23 23 23 23 23 24 24 24 25 26 27 28 29 30 30 31 32 33 34 35 36 36 37 38 38 39 39 39 40 40 40 40 40 41 42
19 20 20 20 20 21 21 21 22 22 22 23 24 25 25 27 28 28 29 30 31 32 33 34 34 35 36 37 38 39 40 40 40 42 43 42 44 43 43 43 44 45 45
18 19 20 20 20 21 21 21 22 23 24 25 26 27 27 28 29 31 32 32 33 34 35 36 37 38 39 40 41 42 43 44 44 45 46 46 47 47 47 48 48 49 49
19 19 20 20 21 21 21 22 23 24 26 26 27 29 29 30 31 32 33 34 35 36 37 38 39 41 42 43 44 45 46 47 48 48 49 50 50 51 51 52 53 54 53
18 19 19 21 22 22 22 23 24 25 26 28 29 30 30 32 33 34 34 36 37 39 40 41 43 45 46 47 48 49 50 51 52 52 54 54 54 54 54 55 56 57 57
17 19 20 21 22 23 24 25 26 27 28 29 30 31 32 33 35 36 37 39 40 42 43 45 47 48 49 51 52 53 54 55 56 57 58 59 59 59 58 59 59 60 60
Wind_Direction
229 228 231 234 236 233 246 257 262 263 270 246 245 246 238 215 205 204 208 212 214 216 215 214 213 216 219 222 224 223 226 230 233 233 230 230 231 229 231 235 239 241 244
223 222 222 223 223 210 214 233 247 249 263 233 220 229 204 190 184 189 199 205 213 216 217 217 218 221 222 225 228 231 233 234 236 237 235 236 238 236 237 239 241 245 248
217 214 211 214 207 200 195 199 203 198 181 161 168 184 158 175 177 176 188 196 204 212 215 216 219 222 225 229 232 235 235 236 236 237 238 239 240 239 240 244 246 248 251
208 208 210 205 198 195 186 179 174 158 145 150 152 135 127 156 179 168 173 178 188 195 201 206 214 220 227 229 231 233 235 234 235 236 239 240 242 242 244 248 250 251 252
207 206 199 196 195 193 184 175 163 142 135 139 134 123 119 121 140 143 152 158 162 166 177 191 203 214 223 226 228 232 234 236 238 238 239 241 242 246 249 251 251 252 254
204 201 193 195 193 189 179 168 156 139 126 126 126 121 120 123 122 125 140 149 153 157 171 185 199 211 221 222 226 230 232 236 239 239 238 241 244 247 251 253 252 253 254
199 196 193 193 190 185 180 171 162 150 138 132 133 130 128 126 124 122 122 130 135 137 161 184 200 212 217 217 221 226 228 232 236 237 238 240 244 248 252 254 254 255 256
198 197 195 195 193 189 186 181 175 166 160 157 149 140 142 136 127 125 126 131 140 144 155 173 191 191 201 213 221 226 229 232 233 234 236 241 247 252 257 258 257 255 256
199 198 198 199 197 195 192 189 188 184 182 180 174 164 162 157 144 136 133 136 152 160 162 169 200 199 200 217 227 230 232 233 235 238 240 246 252 258 261 264 261 258 259
199 200 202 202 200 200 199 199 200 200 200 203 203 203 199 194 186 174 170 163 183 234 270 285 265 250 258 263 258 256 251 248 248 250 252 255 258 260 263 263 264 264 263
201 203 205 206 205 204 206 208 210 213 217 221 225 224 222 222 221 217 221 226 233 240 252 263 274 276 276 273 272 269 265 261 261 260 262 265 266 267 267 266 266 267 267
205 208 210 212 213 213 217 220 222 226 230 235 239 237 237 239 239 239 244 249 252 255 258 261 266 269 272 275 276 274 271 267 267 267 268 269 269 269 269 268 268 268 268
210 213 215 217 220 221 224 228 232 235 240 245 248 248 249 249 250 252 256 261 263 265 268 270 272 272 271 272 274 274 274 273 270 269 269 270 271 271 270 269 269 268 269
215 217 219 221 224 226 231 235 239 242 246 250 252 254 257 256 256 258 260 263 266 268 270 272 276 277 276 275 275 275 275 275 273 272 272 272 272 272 272 272 271 270 270
220 222 225 227 228 232 237 241 243 246 250 253 256 258 260 262 262 262 264 265 268 269 269 271 273 274 273 273 275 276 276 276 275 274 274 273 273 272 272 272 272 271 271
224 227 230 233 235 238 241 245 247 252 255 258 261 262 262 263 265 267 268 268 269 271 273 273 273 273 273 273 274 275 275 275 276 276 275 274 273 272 272 271 271 271 271
229 232 237 238 240 241 245 247 250 255 258 261 264 265 265 267 269 269 270 270 271 272 274 275 275 274 275 276 276 277 277 277 276 276 276 275 274 274 273 273 272 272 271
230 235 239 242 246 247 249 251 253 256 260 263 266 267 268 270 271 272 273 273 273 274 274 274 274 273 275 275 276 276 277 277 277 277 276 276 276 275 274 273 273 272 271
234 238 243 249 251 251 252 253 255 258 262 264 266 267 267 269 272 273 274 275 275 275 275 274 275 275 275 275 275 275 275 276 276 276 275 276 276 276 275 274 273 273 272
242 243 248 252 252 253 256 257 258 260 262 264 266 268 270 270 272 274 276 277 277 277 278 277 276 276 276 276 276 276 276 275 276 276 276 276 276 276 276 275 274 274 273
247 247 250 254 255 256 258 260 261 262 265 266 268 270 271 274 276 276 276 278 278 278 279 279 278 278 277 277 277 277 277 277 277 276 276 276 276 276 275 274 273 273 272
249 249 250 255 258 259 261 263 262 264 266 268 270 272 274 276 278 278 279 278 279 278 279 279 279 279 279 278 278 278 278 277 277 276 276 276 275 275 274 273 272 271 271
255 251 253 257 261 262 262 263 265 266 267 269 271 274 276 279 280 279 279 279 279 279 280 279 279 279 279 279 279 279 279 278 277 276 275 275 275 275 273 272 271 270 270
260 260 260 261 262 264 265 265 266 267 269 271 274 276 277 278 280 280 280 281 281 281 281 281 281 280 280 280 280 279 278 278 277 276 275 274 273 273 272 271 270 270 269
266 264 263 263 264 267 269 270 271 272 273 274 276 277 277 278 280 281 282 282 282 282 282 281 281 281 281 281 280 279 279 278 278 277 276 276 274 273 272 271 270 269 268
268 266 268 269 269 270 271 272 274 275 276 277 278 279 280 281 282 283 283 283 283 282 282 282 282 282 282 281 281 280 280 278 278 277 277 276 275 274 272 271 270 269 269
Height
5879 5880 5881 5881 5881 5881 5881 5880 5880 5880 5880 5879 5879 5879 5880 5880 5880 5880 5880 5881 5881 5881 5882 5882 5883 5883 5884 5885 5886 5886 5887 5888 5889 5890 5890 5891 5891 5892 5893 5893 5893 5894 5894
5878 5879 5880 5880 5880 5880 5880 5880 5880 5880 5879 5879 5879 5879 5879 5879 5879 5879 5879 5879 5880 5880 5881 5881 5882 5882 5883 5884 5884 5885 5886 5886 5887 5888 5889 5889 5890 5891 5891 5892 5892 5892 5893
5877 5878 5879 5879 5880 5880 5880 5880 5880 5879 5879 5879 5879 5879 5879 5879 5879 5879 5879 5878 5878 5879 5879 5880 5880 5881 5882 5882 5883 5883 5884 5884 5885 5886 5887 5888 5888 5889 5889 5890 5890 5891 5891
5875 5877 5878 5879 5879 5879 5880 5880 5880 5879 5879 5879 5879 5878 5878 5878 5878 5878 5878 5878 5878 5878 5878 5878 5879 5880 5880 5881 5881 5882 5882 5883 5883 5884 5885 5886 5886 5887 5887 5888 5888 5889 5889
5874 5875 5877 5878 5878 5879 5879 5879 5879 5880 5879 5879 5879 5879 5878 5878 5878 5878 5878 5878 5878 5878 5878 5878 5878 5879 5879 5879 5880 5880 5881 5881 5881 5882 5882 5883 5884 5885 5885 5886 5886 5886 5887
5872 5874 5875 5877 5877 5878 5879 5879 5880 5880 5880 5880 5879 5879 5879 5879 5879 5878 5878 5878 5878 5878 5877 5877 5878 5878 5878 5878 5878 5878 5879 5879 5879 5880 5880 5881 5882 5882 5883 5883 5883 5884 5884
5870 5872 5874 5876 5877 5878 5878 5879 5880 5880 5880 5880 5880 5880 5880 5879 5879 5879 5878 5878 5878 5877 5877 5877 5877 5877 5877 5877 5877 5877 5877 5877 5878 5878 5879 5879 5880 5880 5880 5881 5881 5881 5881
5869 5871 5873 5874 5876 5877 5878 5879 5879 5880 5880 5880 5880 5880 5880 5881 5880 5879 5879 5878 5878 5878 5877 5877 5877 5876 5876 5876 5876 5876 5876 5876 5876 5877 5877 5878 5878 5878 5878 5878 5878 5878 5878
5867 5869 5871 5873 5875 5876 5877 5878 5879 5879 5880 5880 5880 5881 5881 5880 5880 5880 5879 5879 5878 5878 5877 5877 5876 5876 5876 5875 5875 5875 5875 5875 5875 5875 5876 5876 5876 5876 5876 5876 5875 5875 5875
5866 5868 5870 5872 5873 5875 5876 5877 5878 5879 5879 5880 5880 5880 5880 5880 5880 5880 5879 5879 5878 5878 5877 5877 5876 5876 5875 5875 5875 5874 5874 5874 5874 5874 5874 5874 5874 5874 5873 5873 5873 5872 5872
5864 5866 5868 5870 5872 5873 5874 5875 5876 5877 5878 5878 5879 5879 5879 5879 5879 5879 5879 5878 5878 5877 5876 5876 5875 5875 5874 5874 5874 5873 5873 5873 5873 5872 5872 5872 5872 5871 5871 5870 5870 5870 5869
5863 5865 5867 5868 5870 5871 5873 5874 5875 5875 5876 5876 5877 5877 5877 5878 5878 5878 5877 5877 5876 5876 5875 5875 5874 5874 5873 5873 5872 5872 5871 5871 5871 5870 5870 5869 5869 5868 5868 5867 5867 5866 5866
5860 5862 5864 5866 5867 5869 5870 5871 5872 5873 5873 5874 5874 5875 5875 5875 5876 5875 5875 5875 5875 5874 5873 5873 5872 5871 5871 5870 5870 5869 5869 5868 5868 5868 5867 5867 5866 5865 5865 5864 5863 5862 5862
5858 5860 5862 5863 5865 5866 5868 5869 5870 5870 5871 5871 5872 5872 5872 5872 5872 5872 5872 5872 5872 5872 5871 5870 5870 5869 5868 5867 5867 5866 5865 5865 5864 5864 5863 5863 5862 5861 5861 5860 5859 5858 5857
5855 5857 5859 5860 5861 5863 5864 5865 5866 5867 5867 5868 5868 5868 5868 5868 5869 5869 5869 5868 5868 5868 5867 5867 5866 5865 5864 5863 5862 5862 5861 5860 5860 5859 5859 5858 5857 5856 5855 5855 5854 5853 5852
5853 5854 5855 5857 5858 5859 5860 5861 5862 5863 5863 5863 5864 5864 5864 5864 5864 5864 5864 5864 5864 5863 5862 5862 5861 5860 5859 5858 5858 5857 5856 5855 5854 5853 5853 5852 5851 5850 5849 5848 5847 5847 5846
5849 5850 5852 5853 5854 5855 5856 5857 5858 5858 5858 5859 5859 5859 5859 5858 5858 5858 5858 5858 5858 5857 5857 5856 5856 5855 5854 5853 5852 5851 5850 5849 5848 5847 5846 5845 5844 5843 5842 5841 5840 5839 5838
5845 5847 5848 5849 5850 5851 5852 5852 5853 5853 5853 5854 5853 5853 5853 5853 5852 5852 5852 5851 5851 5850 5850 5849 5848 5848 5847 5846 5845 5844 5842 5841 5840 5839 5838 5836 5835 5834 5833 5832 5831 5830 5829
5841 5843 5844 5845 5845 5846 5847 5847 5848 5848 5848 5848 5848 5847 5847 5847 5846 5845 5845 5844 5844 5843 5842 5841 5840 5839 5838 5838 5837 5836 5834 5833 5831 5830 5828 5827 5825 5824 5823 5822 5821 5820 5818
5837 5838 5839 5840 5840 5840 5841 5842 5842 5842 5842 5842 5841 5841 5841 5840 5840 5839 5838 5837 5836 5835 5834 5833 5832 5830 5829 5828 5827 5826 5824 5823 5821 5820 5818 5817 5815 5813 5812 5811 5810 5808 5807
5832 5833 5834 5835 5835 5835 5835 5836 5836 5836 5836 5836 5835 5835 5834 5833 5833 5832 5830 5829 5828 5826 5825 5824 5822 5821 5819 5817 5816 5815 5814 5812 5811 5809 5807 5806 5804 5802 5801 5799 5797 5796 5795
5827 5828 5829 5829 5829 5829 5830 5830 5830 5830 5830 5829 5829 5828 5827 5826 5825 5824 5822 5821 5819 5817 5816 5814 5813 5811 5809 5807 5805 5803 5802 5800 5799 5797 5794 5793 5791 5790 5788 5786 5785 5783 5782
5823 5823 5823 5824 5824 5823 5824 5824 5824 5824 5823 5823 5822 5821 5820 5818 5817 5815 5814 5812 5810 5808 5806 5804 5802 5800 5798 5796 5794 5792 5789 5787 5786 5784 5781 5780 5778 5776 5774 5772 5770 5768 5767
5818 5818 5818 5818 5818 5818 5818 5818 5817 5817 5816 5815 5814 5813 5811 5810 5808 5806 5805 5803 5800 5798 5796 5793 5791 5789 5786 5784 5781 5779 5776 5774 5771 5769 5766 5765 5763 5761 5759 5756 5754 5752 5751
5812 5812 5812 5812 5812 5812 5811 5811 5810 5810 5808 5807 5806 5804 5803 5801 5799 5797 5795 5793 5790 5787 5784 5782 5779 5776 5773 5770 5767 5764 5761 5759 5756 5753 5750 5748 5746 5745 5743 5740 5737 5735 5733
5807 5807 5806 5806 5805 5805 5805 5804 5803 5802 5801 5799 5797 5796 5794 5792 5789 5787 5784 5781 5778 5775 5772 5769 5765 5762 5758 5755 5751 5748 5745 5741 5738 5736 5732 5730 5727 5726 5725 5722 5719 5716 5714